Location: Drocourt
(49.0571°N, 1.7669°E)
Time: 00:00:45
(UTC+00:00)

Cosmos 1812 Rocket - Pass Details

Date: 09 February 2023
Orbit: 603 x 631 km, 82.5° (Epoch: 01 April)

Event Time Altitude Azimuth Distance (km) Brightness Sun altitude
Rises 19:03:01 0° 348° (NNW) 2,936 7.2 -20.1°
Reaches altitude 10° 19:05:17 10° 346° (NNW) 2,021 6.4 -20.4°
Maximum altitude 19:09:45 70° 263° (W) 671 3.8 -21.2°
Drops below altitude 10° 19:14:08 10° 181° (S) 1,989 6.1 -21.9°
Sets 19:16:20 0° 179° (S) 2,886 6.9 -22.2°
